Queralbs





Hora UTC 15:55
Temperatura 16.9 ºC
Humedad 71.0 %
Presión 1018.7 hPa
Pluja 8.6 mm
Velocidad viento 0.0 km/h
Dirección viento ENE
Radiación solar 88.0 W/m²

Datos diarios 2019-09-20



Hora UTC (invierno +1h; verano +2h)
Temperatura (ºC) Humedad (%) Presión (hPa) Velocidad viento (km/h) Precipitación (mm) Radiación solar (W/m²)
Hora UTC Aire Humedad Presión Vel. Dir. Vel. Max Dir. Intent. máx 5 min. Rad. Sol.
00:05 11.6 67.0 1020.6 0.0 NW 0.0 0.0 0.0
00:10 11.8 67.0 1020.6 0.0 NW 3.2 0.0 0.0
00:15 11.8 68.0 1020.6 1.6 NW 3.2 0.0 0.0
00:20 11.7 67.0 1020.6 0.0 NW 3.2 0.0 0.0
00:25 11.8 67.0 1020.5 0.0 NW 3.2 0.0 0.0
00:30 11.9 66.0 1020.5 3.2 NW 3.2 0.0 0.0
00:35 12.2 65.0 1020.5 1.6 NW 3.2 0.0 0.0
00:40 12.3 66.0 1020.5 0.0 NW 3.2 0.0 0.0
00:45 12.1 66.0 1020.6 0.0 NW 3.2 0.0 0.0
00:50 12.0 66.0 1020.4 0.0 NW 1.6 0.0 0.0
00:55 11.8 66.0 1020.4 1.6 NW 3.2 0.0 0.0
01:00 11.7 67.0 1020.3 0.0 NW 3.2 0.0 0.0
01:05 11.6 67.0 1020.2 0.0 NW 3.2 0.0 0.0
01:10 11.7 67.0 1020.2 0.0 NW 1.6 0.0 0.0
01:15 11.8 67.0 1020.2 1.6 NW 3.2 0.0 0.0
01:20 11.8 68.0 1020.3 0.0 NW 3.2 0.0 0.0
01:25 11.7 67.0 1020.3 1.6 NW 3.2 0.0 0.0
01:30 11.7 67.0 1020.3 0.0 NW 3.2 0.0 0.0
01:35 11.7 67.0 1020.2 0.0 NW 1.6 0.0 0.0
01:40 11.6 67.0 1020.1 3.2 NW 3.2 0.0 0.0
01:45 11.6 67.0 1020.1 0.0 NW 4.8 0.0 0.0
01:50 11.6 67.0 1020.2 1.6 NW 3.2 0.0 0.0
01:55 11.6 68.0 1020.1 0.0 NW 3.2 0.0 0.0
02:00 11.4 68.0 1020.1 0.0 NW 3.2 0.0 0.0
02:05 11.5 68.0 1020.1 0.0 NW 3.2 0.0 0.0
02:10 11.6 67.0 1020.0 0.0 NW 3.2 0.0 0.0
02:15 11.7 67.0 1020.0 1.6 NW 1.6 0.0 0.0
02:20 11.8 67.0 1019.9 1.6 NW 1.6 0.0 0.0
02:25 11.8 68.0 1019.9 0.0 NW 1.6 0.0 0.0
02:30 11.9 68.0 1019.9 0.0 NW 1.6 0.0 0.0
02:35 12.0 68.0 1019.8 0.0 NW 1.6 0.0 0.0
02:40 12.0 68.0 1019.7 0.0 NW 1.6 0.0 0.0
02:45 11.9 68.0 1019.7 0.0 NW 0.0 0.0 0.0
02:50 11.9 68.0 1019.6 0.0 NW 0.0 0.0 0.0
02:55 11.8 69.0 1019.5 0.0 NW 0.0 0.0 0.0
03:00 11.7 68.0 1019.5 0.0 NW 1.6 0.0 0.0
03:05 11.8 68.0 1019.5 1.6 NW 3.2 0.0 0.0
03:10 11.9 69.0 1019.5 0.0 NW 3.2 0.0 0.0
03:15 11.9 68.0 1019.6 0.0 NW 1.6 0.0 0.0
03:20 12.1 69.0 1019.6 0.0 NW 1.6 0.0 0.0
03:25 12.2 69.0 1019.5 0.0 NW 1.6 0.0 0.0
03:30 12.2 69.0 1019.5 0.0 NW 1.6 0.0 0.0
03:35 12.3 69.0 1019.4 0.0 NW 1.6 0.0 0.0
03:40 12.3 69.0 1019.6 0.0 NW 1.6 0.0 0.0
03:45 12.3 68.0 1019.4 0.0 NW 1.6 0.0 0.0
03:50 12.4 68.0 1019.4 1.6 NW 3.2 0.0 0.0
03:55 12.6 68.0 1019.3 0.0 NW 3.2 0.0 0.0
04:00 12.6 68.0 1019.3 0.0 NW 1.6 0.0 0.0
04:05 12.6 68.0 1019.3 0.0 NW 0.0 0.0 0.0
04:10 12.5 69.0 1019.2 0.0 NW 1.6 0.0 0.0
04:15 12.3 68.0 1019.3 0.0 NW 1.6 0.0 0.0
04:20 12.3 68.0 1019.3 0.0 NW 3.2 0.0 0.0
04:25 12.4 68.0 1019.3 0.0 NW 3.2 0.0 0.0
04:30 12.4 68.0 1019.3 1.6 NW 1.6 0.0 0.0
04:35 12.4 68.0 1019.2 0.0 NW 1.6 0.0 0.0
04:40 12.5 68.0 1019.2 0.0 NW 1.6 0.0 0.0
04:45 12.4 68.0 1019.3 0.0 NW 1.6 0.0 0.0
04:50 12.5 68.0 1019.3 1.6 NW 3.2 0.0 0.0
04:55 12.4 68.0 1019.3 1.6 NW 3.2 0.0 0.0
05:00 12.4 68.0 1019.3 3.2 NW 3.2 0.0 0.0
05:05 12.5 68.0 1019.3 0.0 NW 4.8 0.0 0.0
05:10 12.5 69.0 1019.3 0.0 NW 4.8 0.0 0.0
05:15 0.0
05:20 0.0
05:25 0.0
05:30 0.0
05:35 0.0
05:40 0.0
05:45 0.0
05:50 0.0
05:55 0.0
06:00 0.0
06:05 0.0
06:10 0.0
06:15 0.0
06:20 0.0
06:25 12.9 69.0 1019.6 0.0 NW 1.6 0.0 49.0
06:30 12.9 69.0 1019.5 0.0 NW 1.6 0.0 70.0
06:35 13.2 69.0 1019.5 0.0 NW 1.6 0.0 74.0
06:40 13.4 70.0 1019.6 1.6 NW 3.2 0.0 63.0
06:45 13.6 69.0 1019.6 0.0 NW 3.2 0.0 65.0
06:50 13.8 69.0 1019.7 0.0 NW 3.2 0.0 77.0
06:55 13.7 68.0 1019.8 0.0 NW 3.2 0.0 88.0
07:00 13.7 67.0 1019.8 0.0 NW 0.0 0.0 102.0
07:05 13.8 68.0 1020.0 0.0 NW 1.6 0.0 84.0
07:10 13.9 68.0 1019.9 0.0 NW 1.6 0.0 93.0
07:15 14.2 68.0 1019.9 0.0 NW 1.6 0.0 113.0
07:20 14.4 68.0 1019.9 0.0 NW 1.6 0.0 76.0
07:25 14.6 67.0 1020.1 0.0 NW 1.6 0.0 120.0
07:30 14.8 67.0 1020.0 0.0 NW 1.6 0.0 128.0
07:35 14.9 67.0 1020.1 0.0 NW 1.6 0.0 188.0
07:40 15.1 67.0 1020.2 0.0 NW 3.2 0.0 206.0
07:45 15.2 67.0 1020.2 3.2 ENE 6.4 0.0 116.0
07:50 15.0 68.0 1020.5 0.0 ENE 6.4 0.0 174.0
07:55 15.1 68.0 1020.5 0.0 ENE 1.6 0.0 171.0
08:00 15.2 68.0 1020.5 0.0 ENE 3.2 0.0 167.0
08:05 15.3 68.0 1020.5 1.6 ENE 3.2 0.0 190.0
08:10 15.6 67.0 1020.5 0.0 ENE 3.2 0.0 199.0
08:15 15.6 66.0 1020.5 4.8 NE 4.8 0.0 193.0
08:20 15.8 64.0 1020.6 0.0 NE 4.8 0.0 225.0
08:25 15.9 64.0 1020.6 0.0 NE 3.2 0.0 241.0
08:30 16.1 63.0 1020.6 0.0 NE 3.2 0.0 237.0
08:35 16.5 63.0 1020.7 1.6 NE 3.2 0.0 255.0
08:40 16.8 63.0 1020.7 1.6 NE 3.2 0.0 262.0
08:45 17.1 62.0 1020.7 3.2 E 4.8 0.0 352.0
08:50 17.2 62.0 1020.6 3.2 E 4.8 0.0 316.0
08:55 17.2 63.0 1020.6 3.2 SSW 4.8 0.0 260.0
09:00 17.3 62.0 1020.7 3.2 S 8.0 0.0 519.0
09:05 17.7 63.0 1020.7 3.2 SE 4.8 0.0 476.0
09:10 18.1 61.0 1020.8 3.2 SSE 8.0 0.0 385.0
09:15 18.1 61.0 1020.7 6.4 SE 9.7 0.0 564.0
09:20 18.0 60.0 1020.7 4.8 SSE 8.0 0.0 271.0
09:25 17.8 60.0 1020.6 3.2 SSE 11.3 0.0 227.0
09:30 17.9 61.0 1020.5 1.6 SSE 11.3 0.0 236.0
09:35 17.8 60.0 1020.4 8.0 S 12.9 0.0 230.0
09:40 17.7 59.0 1020.5 4.8 S 12.9 0.0 214.0
09:45 17.7 59.0 1020.5 3.2 SSE 8.0 0.0 243.0
09:50 17.7 59.0 1020.5 4.8 SSE 8.0 0.0 311.0
09:55 17.9 59.0 1020.5 4.8 S 12.9 0.0 378.0
10:00 17.9 59.0 1020.5 8.0 S 12.9 0.0 323.0
10:05 17.9 59.0 1020.4 6.4 SSE 12.9 0.0 221.0
10:10 17.9 59.0 1020.4 11.3 SSE 14.5 0.0 930.0
10:15 18.3 58.0 1020.3 9.7 S 14.5 0.0 399.0
10:20 18.6 57.0 1020.3 11.3 SSE 17.7 0.0 378.0
10:25 18.8 56.0 1020.3 12.9 SSE 17.7 0.0 1000.0
10:30 18.9 55.0 1020.3 3.2 S 17.7 0.0 339.0
10:35 19.2 55.0 1020.3 4.8 ESE 17.7 0.0 998.0
10:40 19.7 57.0 1020.3 11.3 SE 16.1 0.0 1085.0
10:45 20.1 53.0 1020.1 6.4 S 17.7 0.0 1028.0
10:50 19.9 52.0 1020.3 11.3 SSE 17.7 0.0 325.0
10:55 19.4 53.0 1020.1 11.3 S 19.3 0.0 396.0
11:00 19.3 53.0 1020.1 12.9 S 19.3 0.0 352.0
11:05 19.2 54.0 1020.2 3.2 S 17.7 0.0 392.0
11:10 19.4 53.0 1020.1 14.5 S 16.1 0.0 410.0
11:15 19.2 54.0 1020.1 6.4 S 17.7 0.0 940.0
11:20 18.9 54.0 1020.1 8.0 SE 16.1 0.0 448.0
11:25 18.9 55.0 1020.0 11.3 SSE 14.5 0.0 434.0
11:30 18.8 54.0 1019.9 8.0 S 19.3 0.0 408.0
11:35 19.3 56.0 1019.8 14.5 SSE 19.3 0.0 1078.0
11:40 19.8 53.0 1019.9 9.7 S 19.3 0.0 747.0
11:45 19.6 53.0 1019.9 8.0 SSE 19.3 0.0 295.0
11:50 19.3 53.0 1019.9 16.1 SSE 19.3 0.0 336.0
11:55 18.8 54.0 1019.8 6.4 S 17.7 0.0 216.0
12:00 18.4 55.0 1019.7 6.4 S 16.1 0.0 141.0
12:05 18.2 56.0 1019.9 11.3 SSE 14.5 0.0 104.0
12:10 18.0 57.0 1019.7 6.4 SSW 14.5 0.0 127.0
12:15 17.9 58.0 1019.8 4.8 SSE 14.5 0.0 139.0
12:20 17.7 59.0 1019.7 8.0 S 14.5 0.0 135.0
12:25 17.6 60.0 1019.7 6.4 SSE 12.9 0.0 123.0
12:30 17.4 61.0 1019.6 4.8 SE 11.3 0.0 137.0
12:35 17.4 61.0 1019.9 0.0 W 9.7 0.0 141.0
12:40 17.6 65.0 1019.9 0.0 WSW 4.8 0.0 141.0
12:45 17.6 64.0 1019.9 1.6 WSW 3.2 0.0 121.0
12:50 17.4 66.0 1020.1 1.6 SW 3.2 0.4 90.0
12:55 17.4 67.0 1019.9 3.2 SSE 8.0 0.2 109.0
13:00 17.2 68.0 1020.1 1.6 SSE 8.0 0.4 86.0
13:05 16.9 68.0 1020.0 1.6 SSE 3.2 0.6 58.0
13:10 16.6 67.0 1020.1 0.0 WNW 4.8 2.2 47.0
13:15 16.0 67.0 1020.0 3.2 WNW 8.0 2.6 62.0
13:20 15.7 69.0 1020.0 4.8 NNW 8.0 1.4 88.0
13:20 15.6 70.0 1020.0 1.6 NNW 6.4 0.6 121.0
13:30 15.5 71.0 1020.0 0.0 NNW 4.8 0.2 227.0
13:35 15.6 72.0 1019.9 1.6 NNE 3.2 0.0 232.0
13:35 15.7 71.0 1019.8 1.6 NNE 3.2 0.0 287.0
13:45 15.8 72.0 1019.8 1.6 NE 4.8 0.0 253.0
13:50 15.9 72.0 1019.8 3.2 ENE 4.8 0.0 271.0
13:55 16.1 73.0 1019.9 1.6 ENE 4.8 0.0 272.0
14:00 16.1 73.0 1019.8 1.6 ENE 3.2 0.0 415.0
14:05 16.1 70.0 1019.9 1.6 ENE 3.2 0.0 334.0
14:10 16.2 73.0 1019.8 4.8 SSW 4.8 0.0 316.0
14:15 16.4 73.0 1019.6 1.6 SSW 4.8 0.0 329.0
14:20 16.6 72.0 1019.4 3.2 SSW 4.8 0.0 281.0
14:25 16.5 71.0 1019.4 1.6 SSW 6.4 0.0 227.0
14:30 16.4 69.0 1019.3 3.2 SSW 8.0 0.0 213.0
14:35 16.4 70.0 1019.3 0.0 SSW 8.0 0.0 197.0
14:40 16.6 71.0 1019.1 3.2 ESE 4.8 0.0 163.0
14:45 16.7 71.0 1019.1 3.2 WNW 4.8 0.0 114.0
14:50 16.7 71.0 1019.2 1.6 N 6.4 0.0 142.0
14:55 16.5 69.0 1019.0 1.6 N 3.2 0.0 192.0
15:00 16.9 70.0 1018.9 1.6 ENE 4.8 0.0 550.0
15:05 17.0 70.0 1019.0 0.0 ENE 4.8 0.0 197.0
15:10 17.1 70.0 1018.8 1.6 ENE 3.2 0.0 135.0
15:15 16.9 69.0 1018.9 0.0 ENE 3.2 0.0 128.0
15:20 16.9 69.0 1018.8 1.6 ENE 3.2 0.0 98.0
15:25 16.8 69.0 1018.8 0.0 ENE 3.2 0.0 100.0
15:30 16.8 69.0 1018.7 0.0 ENE 3.2 0.0 132.0
15:35 16.8 70.0 1018.9 0.0 ENE 1.6 0.0 116.0
15:40 16.6 70.0 1018.9 1.6 ENE 3.2 0.0 125.0
15:45 16.7 71.0 1018.8 0.0 ENE 3.2 0.0 141.0
15:50 16.8 71.0 1018.8 0.0 ENE 1.6 0.0 123.0
15:55 16.9 71.0 1018.7 0.0 ENE 0.0 0.0 88.0
Máxima 20.1 73.0 1020.8 16.1 SSE 19.3 2.6 1085.0
Mínima 11.1 52.0 1018.7
Total 8.6